Retour au catalogue

COSMOS 970 DEB

ActifLEO
NORAD 10888·DEBRIS·🇷🇺 Russia

Lancé Dec 21, 1977 depuis Baikonur Cosmodrome

Loading…

Prochains Passages (prochaines 24 heures)

TLE

VieillissantSource: Space-Track

Époque: Sep 12, 2026, 06:08 UTC

1 10888U 77121AK  26255.25591562  .00000084  00000-0  20040-3 0  9999
2 10888  65.5144 177.3653 0129388 236.0948 283.0134 13.62530647417085

Suivez COSMOS 970 DEB en temps réel avec AllMySat

Download on the App Store